sat.trackr.live / text

‹ back to catalog

STARLINK-34795

NORAD 65684 · 2025-212J

PAYLOAD ACTIVE UNKNOWN

§ Identity

Operator
Country
US
Launch date
2025-09-21
Launch site
AFETR
Launch vehicle
Mass (kg)
RCS (m²)

Purposes: comms

External: N2YO · Heavens-Above · Gunter

§ Orbital elements

Epoch: 2026-09-20T23:27:34.027488Z

Period
93.85 min
Inclination
53.1570°
Eccentricity
0.0001246
Mean motion
15.34437474 rev/d
Perigee alt
461.7 km
Apogee alt
463.4 km
Semi-major
6,840.7 km
B*
8.3406e-4
RAAN
155.7032°
Arg perigee
92.7151°
Mean anomaly
267.3995°
Rev number
5,713

§ Raw data

STARLINK-347951 65684U 25212J   26263.97747717  .00027942  00000+0  83406-3 0  99962 65684  53.1570 155.7032 0001246  92.7151 267.3995 15.34437474 57132

JSON: /api/v1/satellites/65684 · /tle

For live sub-satellite position, see the globe view (requires WebGL).

§ Visibility from observer

Set your observer location to see the next 7 days of passes ≥ 10°. The values pass through the URL so the page stays shareable.

No JS? Fill the form by hand. The geolocation button needs JavaScript.